Back to catalog

STARLINK-34111

AliveCommunicationsVLEO
NORAD 64041·PAYLOAD·🇺🇸 United States

Launched May 16, 2025 from Vandenberg Space Force Base

Loading…

Next Passes (next 24 hours)

TLE

FreshSource: CelesTrak SupGP

Epoch: Sep 14, 2026, 22:54 UTC

1 64041C 25102V   26257.95465278 -.00021296  00000+0 -74113-3 0  2570
2 64041  70.0011 355.4452 0003311 271.3696 222.0083 15.29576475    15

Track STARLINK-34111 in real time with AllMySat

Download on the App Store